This is the latest recevied weather packets stored in our database for station/object SQ2WB-13. If no packets are shown the sender has not sent any weather packets the latest 10 day(s).
| Time | Temp. | Humidity | Pressure | Rain* | Wind** | Luminosity | Snow |
|---|---|---|---|---|---|---|---|
| 1777544102 | 13.89° C | 36% | 1021.6 hPa | 0 mm | - | - | - |
| 1777543202 | 13.89° C | 36% | 1022 hPa | 0 mm | - | - | - |
| 1777542302 | 12.78° C | 36% | 1022 hPa | 0 mm | - | - | - |
| 1777541401 | 12.78° C | 38% | 1022 hPa | 0 mm | - | - | - |
| 1777540502 | 11.67° C | 36% | 1022 hPa | 0 mm | - | - | - |
| 1777539602 | 10.56° C | 38% | 1022 hPa | 0 mm | - | - | - |
| 1777538701 | 11.67° C | 38% | 1022 hPa | 0 mm | - | - | - |
| 1777537802 | 10.56° C | 39% | 1022.3 hPa | 0 mm | - | - | - |
| 1777536901 | 11.67° C | 40% | 1022.6 hPa | 0 mm | - | - | - |
| 1777536032 | 11.67° C | 39% | 1022.6 hPa | 0 mm | - | - | - |
| 1777535101 | 10° C | 40% | 1022.6 hPa | 0 mm | - | - | - |
| 1777534201 | 10° C | 39% | 1022.6 hPa | 0 mm | - | - | - |
| 1777533301 | 8.89° C | 40% | 1022.6 hPa | 0 mm | - | - | - |
| 1777532401 | 7.78° C | 45% | 1022.6 hPa | 0 mm | - | - | - |
| 1777531502 | 6.67° C | 49% | 1022.6 hPa | 0 mm | - | - | - |
| 1777530602 | 5.56° C | 52% | 1022.6 hPa | 0 mm | - | - | - |
| 1777529702 | 5° C | 51% | 1022.6 hPa | 0 mm | - | - | - |
| 1777528802 | 3.89° C | 58% | 1022.6 hPa | 0 mm | - | - | - |
| 1777527902 | 3.89° C | 62% | 1022.3 hPa | 0 mm | - | - | - |
| 1777527003 | 1.67° C | 69% | 1022.6 hPa | 0 mm | - | - | - |
| 1777526102 | 0.56° C | 75% | 1022.6 hPa | 0 mm | - | - | - |
| 1777525201 | 0° C | 76% | 1022.6 hPa | 0 mm | - | - | - |
| 1777524303 | -1.11° C | 77% | 1022.6 hPa | 0 mm | - | - | - |
| 1777523402 | -1.11° C | 76% | 1022.6 hPa | 0 mm | - | - | - |
| 1777522501 | -1.11° C | 76% | 1022.6 hPa | 0 mm | - | - | - |
* Rain latest hour (hover to see other rain measurements)
** Current wind speed in m/s (hover to see current wind gust speed)